| time (UTC) | temp F | wind direction | speed MPH | gust MPH | rain 1hr in | rain 24hr in | rain mn in | humidity % | barometer mb |
| 20260505052519 | 50 | 0.0 | 1.0 | 0.00 | 0.06 | 0.06 | 91 | 1012.9 | |
| 20260505051519 | 50 | 0.0 | 0.0 | 0.00 | 0.06 | 0.06 | 92 | 1012.7 | |
| 20260505050539 | 50 | 0.0 | 0.0 | 0.00 | 0.06 | 0.06 | 92 | 1012.1 | |
| 20260505041519 | 50 | 0.0 | 0.0 | 0.00 | 0.06 | 0.06 | 91 | 1011.2 | |
| 20260505040519 | 49 | 0.0 | 1.0 | 0.00 | 0.06 | 0.06 | 92 | 1010.6 | |
| 20260505035519 | 49 | 0.0 | 0.0 | 0.00 | 0.06 | 0.06 | 91 | 1010.4 | |
| 20260505034519 | 49 | 0.0 | 0.0 | 0.00 | 0.06 | 0.06 | 91 | 1010.3 | |
| 20260505033539 | 49 | 0.0 | 0.0 | 0.00 | 0.06 | 0.06 | 91 | 1008.9 | |
| 20260505032519 | 49 | 0.0 | 0.0 | 0.00 | 0.06 | 0.06 | 90 | 1008.8 | |
| 20260505031519 | 50 | 0.0 | 0.0 | 0.00 | 0.06 | 0.06 | 90 | 1009.0 | |
| 20260505030519 | 50 | 0.0 | 0.0 | 0.00 | 0.06 | 0.06 | 90 | 1007.8 | |
| 20260505025519 | 50 | 0.0 | 0.0 | 0.00 | 0.06 | 0.06 | 89 | 1007.6 | |
| 20260505024519 | 50 | 0.0 | 0.0 | 0.00 | 0.06 | 0.06 | 89 | 1007.5 | |
| 20260505023519 | 50 | 0.0 | 0.0 | 0.00 | 0.06 | 0.06 | 88 | 1007.0 | |
| 20260505022519 | 51 | 0.0 | 0.0 | 0.00 | 0.06 | 0.06 | 86 | 1006.8 | |
| 20260505021519 | 51 | 0.0 | 0.0 | 0.00 | 0.06 | 0.06 | 85 | 1006.7 | |
| 20260505020519 | 51 | 0.0 | 0.0 | 0.00 | 0.06 | 0.06 | 83 | 1006.0 | |
| 20260505015519 | 51 | 0.0 | 0.0 | 0.00 | 0.06 | 0.06 | 83 | 1006.0 | |
| 20260505014519 | 52 | 0.0 | 0.0 | 0.00 | 0.06 | 0.06 | 85 | 1006.0 | |
| 20260505013519 | 52 | 0.0 | 0.0 | 0.00 | 0.06 | 0.06 | 84 | 1005.7 | |
| 20260505012519 | 52 | 0.0 | 0.0 | 0.01 | 0.06 | 0.06 | 85 | 1005.7 | |
| 20260505010519 | 52 | 0.0 | 0.0 | 0.05 | 0.06 | 0.06 | 82 | 1005.3 | |
| 20260505005539 | 52 | 0.0 | 0.0 | 0.05 | 0.06 | 0.06 | 82 | 1005.1 | |
| 20260505004519 | 52 | 0.0 | 1.0 | 0.05 | 0.06 | 0.06 | 80 | 1005.1 | |
| 20260505003539 | 53 | 0.0 | 1.0 | 0.05 | 0.06 | 0.06 | 78 | 1004.9 | |
| 20260505002519 | 53 | 0.0 | 1.0 | 0.04 | 0.05 | 0.05 | 77 | 1005.2 | |
| 20260505001519 | 55 | 0.0 | 1.0 | 0.03 | 0.04 | 0.04 | 73 | 1005.7 | |
| 20260505000519 | 57 | 270 | 1.0 | 7.0 | 0.00 | 0.01 | 0.01 | 61 | 1005.6 |
| 20260504235539 | 60 | 180 | 2.0 | 10.0 | 0.00 | 0.01 | 0.01 | 52 | 1005.4 |
| 20260504234518 | 62 | 0.0 | 0.0 | 0.00 | 0.01 | 0.01 | 44 | 1005.4 | |
| 20260504233519 | 62 | 0.0 | 0.0 | 0.00 | 0.01 | 0.01 | 45 | 1005.2 | |
| 20260504232519 | 63 | 0.0 | 0.0 | 0.00 | 0.01 | 0.01 | 45 | 1005.3 | |
| 20260504231518 | 63 | 0.0 | 0.0 | 0.00 | 0.01 | 0.01 | 42 | 1005.1 | |
| 20260504230519 | 64 | 0.0 | 2.0 | 0.00 | 0.01 | 0.01 | 39 | 1005.2 | |
| 20260504225518 | 64 | 338 | 1.0 | 1.0 | 0.00 | 0.01 | 0.01 | 38 | 1004.9 |
| 20260504224519 | 64 | 0.0 | 1.0 | 0.00 | 0.01 | 0.01 | 38 | 1004.9 | |
| 20260504223518 | 63 | 0.0 | 2.0 | 0.00 | 0.01 | 0.01 | 39 | 1004.8 | |
| 20260504222519 | 63 | 338 | 1.0 | 2.0 | 0.00 | 0.01 | 0.01 | 39 | 1004.8 |
| 20260504221519 | 63 | 315 | 1.0 | 4.0 | 0.00 | 0.01 | 0.01 | 39 | 1004.9 |
| 20260504220518 | 63 | 315 | 1.0 | 4.0 | 0.00 | 0.01 | 0.01 | 40 | 1005.4 |
| 20260504215519 | 63 | 315 | 1.0 | 4.0 | 0.01 | 0.01 | 0.01 | 43 | 1005.3 |
| 20260504214518 | 62 | 315 | 1.0 | 3.0 | 0.01 | 0.01 | 0.01 | 42 | 1005.4 |
| 20260504213519 | 62 | 0.0 | 3.0 | 0.01 | 0.01 | 0.01 | 48 | 1005.6 | |
| 20260504212519 | 61 | 315 | 2.0 | 5.0 | 0.01 | 0.01 | 0.01 | 52 | 1005.1 |
| 20260504211539 | 60 | 0.0 | 1.0 | 0.01 | 0.01 | 0.01 | 53 | 1005.1 | |
| 20260504210518 | 60 | 0.0 | 1.0 | 0.01 | 0.01 | 0.01 | 56 | 1005.5 | |
| 20260504205519 | 61 | 315 | 3.0 | 8.0 | 0.00 | 0.00 | 0.00 | 44 | 1006.1 |
| 20260504204518 | 62 | 315 | 2.0 | 4.0 | 0.00 | 0.00 | 0.00 | 39 | 1006.5 |
| 20260504203519 | 62 | 315 | 1.0 | 4.0 | 0.00 | 0.00 | 0.00 | 40 | 1006.8 |
| 20260504202518 | 62 | 0.0 | 2.0 | 0.00 | 0.00 | 0.00 | 41 | 1006.8 | |
| 20260504201518 | 62 | 0.0 | 1.0 | 0.00 | 0.00 | 0.00 | 41 | 1006.8 | |
| 20260504200518 | 62 | 0.0 | 2.0 | 0.00 | 0.00 | 0.00 | 41 | 1007.4 | |
| 20260504195519 | 62 | 315 | 1.0 | 8.0 | 0.00 | 0.00 | 0.00 | 41 | 1007.5 |
| 20260504194539 | 62 | 315 | 3.0 | 8.0 | 0.00 | 0.00 | 0.00 | 40 | 1007.4 |
| 20260504193540 | 64 | 315 | 4.0 | 7.0 | 0.00 | 0.00 | 0.00 | 41 | 1007.3 |
| 20260504192520 | 65 | 315 | 2.0 | 4.0 | 0.00 | 0.00 | 0.00 | 33 | 1007.1 |
| 20260504191518 | 66 | 0 | 1.0 | 3.0 | 0.00 | 0.00 | 0.00 | 34 | 1006.7 |
| 20260504190541 | 67 | 315 | 2.0 | 4.0 | 0.00 | 0.00 | 0.00 | 31 | 1007.2 |
| 20260504185540 | 68 | 293 | 1.0 | 4.0 | 0.00 | 0.00 | 0.00 | 24 | 1006.9 |
| 20260504184520 | 71 | 0.0 | 2.0 | 0.00 | 0.00 | 0.00 | 23 | 1007.1 | |
| 20260504183601 | 71 | 0.0 | 2.0 | 0.00 | 0.00 | 0.00 | 23 | 1007.5 | |
| 20260504182520 | 71 | 315 | 1.0 | 2.0 | 0.00 | 0.00 | 0.00 | 21 | 1007.4 |
| 20260504181540 | 71 | 0 | 1.0 | 5.0 | 0.00 | 0.00 | 0.00 | 21 | 1007.4 |
| 20260504180520 | 72 | 338 | 3.0 | 6.0 | 0.00 | 0.00 | 0.00 | 20 | 1007.8 |
| 20260504175520 | 74 | 315 | 1.0 | 4.0 | 0.00 | 0.00 | 0.00 | 19 | 1008.1 |
| 20260504174520 | 75 | 315 | 2.0 | 5.0 | 0.00 | 0.00 | 0.00 | 18 | 1008.2 |
| 20260504173520 | 75 | 315 | 2.0 | 5.0 | 0.00 | 0.00 | 0.00 | 18 | 1008.7 |
| 20260504172520 | 75 | 0.0 | 3.0 | 0.00 | 0.00 | 0.00 | 21 | 1008.9 | |
| 20260504171520 | 75 | 293 | 1.0 | 2.0 | 0.00 | 0.00 | 0.00 | 21 | 1008.9 |
| 20260504170518 | 73 | 338 | 1.0 | 6.0 | 0.00 | 0.00 | 0.00 | 21 | 1009.0 |
| 20260504150520 | 56 | 0.0 | 1.0 | 0.00 | 0.00 | 0.00 | 48 | 1008.0 | |
| 20260504140520 | 48 | 0.0 | 1.0 | 0.00 | 0.00 | 0.00 | 65 | 1007.8 | |
| 20260504130519 | 41 | 0.0 | 0.0 | 0.00 | 0.00 | 0.00 | 80 | 1007.2 | |
| 20260504110522 | 40 | 0.0 | 0.0 | 0.00 | 0.00 | 0.00 | 74 | 1007.5 | |
| 20260504100519 | 42 | 0.0 | 2.0 | 0.00 | 0.00 | 0.00 | 65 | 1008.5 | |
| 20260504081519 | 46 | 0.0 | 0.0 | 0.00 | 0.00 | 0.00 | 61 | 1009.9 | |
| 20260504080519 | 47 | 0.0 | 0.0 | 0.00 | 0.00 | 0.00 | 59 | 1010.4 |